TERRA

Last updated on Sat Dec 13 2025 00:02:16 GMT+0000 (Coordinated Universal Time)

1 25994U 99068A 25346.25728196 .00000798 00000+0 17223-3 0 9992 2 25994 97.9750 37.9595 0003603 95.4967 339.2568 14.60901204382318
UTC large
Height (km)
Speed (km/s)
/
Latitude / Longitude
Inclination (degrees)
Orbital Period (minutes)
Azimuth
Elevation
Range (km)
Doppler Factor

Next 0 passes for location: London (51.5072 / 0.1276)

Sorry there are no passes over London.